Flag for India Weather past 2 weeks in Chennai, Tamil Nadu, India

Now
82 °F

Passing clouds.


Feels Like: 91 °F
Forecast: 77 / 91 °F
Wind: 6 mph from Southwest

Location: Madras / Minambakkam

Current Time: Sep 3, 2014 at 6:54:31 AM

Latest Report: Sep 3, 2014 at 6:10 AM


Visibility: 4 mi

Pressure: 29.71 "Hg

Humidity: 84%

Dew point: 77 °F

Location of ChennaiLocation

Historic Weather in Chennai — Graph

°F

Chennai temperature yesterday

Maximum temperature yesterday: 95 °F (at 1:10 PM)
Minimum temperature yesterday: 79 °F (at 5:10 AM)
Average temperature yesterday: 86 °F

Past Weeks' High & Low Weather Summary

 TemperatureHumidityPressure
High99 °F (Aug 23, 4:40 AM)94% (Aug 25, 12:10 AM)29.86 "Hg (Aug 25, 12:10 AM)
Low75 °F (Aug 25, 12:10 AM)41% (Aug 31, 1:40 PM)29.47 "Hg (Aug 31, 3:40 PM)
Average86 °F69%29.67 "Hg
* Reported Aug 19 5:40 AM — Sep 3 5:40 AM, Chennai, Weather by CustomWeather, © 2014

Note: Actual official high and low records may vary slightly from our data, if they occured in-between our weather recording intervals... More about our weather records

Advertising

Chennai weather history for previous 24 hours

 ConditionsComfort  
Time TempWeatherWind HumidityBarometerVisibility
5:40 AM
Sep 3
82 °FPassing clouds.7 mph84%29.71 "Hg4 mi
5:10 AM82 °FPartly cloudy.8 mph84%29.71 "Hg4 mi
4:40 AM82 °FPartly cloudy.7 mph84%29.71 "Hg4 mi
4:10 AM82 °FPassing clouds.6 mph84%29.71 "Hg4 mi
3:40 AM82 °FPassing clouds.8 mph84%29.71 "Hg4 mi
3:10 AM82 °FPassing clouds.8 mph84%29.68 "Hg4 mi
2:40 AM82 °FPassing clouds.10 mph84%29.68 "Hg4 mi
2:10 AM84 °FPassing clouds.6 mph79%29.71 "Hg4 mi
1:40 AM84 °FPassing clouds.9 mph79%29.68 "Hg4 mi
1:10 AM84 °FPassing clouds.8 mph79%29.68 "Hg4 mi
12:10 AM84 °FPassing clouds.7 mph79%29.71 "Hg4 mi
11:40 PM
Sep 2
84 °FPassing clouds.9 mph79%29.71 "Hg4 mi
11:10 PM84 °FPassing clouds.8 mph74%29.71 "Hg4 mi
10:40 PM84 °FPassing clouds.9 mph74%29.71 "Hg4 mi
10:10 PM84 °FPassing clouds.12 mph74%29.71 "Hg4 mi
9:40 PM84 °FPassing clouds.12 mph74%29.74 "Hg4 mi
9:10 PM84 °FPassing clouds.12 mph74%29.71 "Hg4 mi
8:40 PM84 °FPassing clouds.9 mph79%29.71 "Hg4 mi
8:10 PM84 °FPassing clouds.9 mph79%29.71 "Hg4 mi
7:40 PM84 °FPassing clouds.12 mph79%29.68 "Hg4 mi
7:10 PM84 °FPassing clouds.13 mph79%29.65 "Hg4 mi
6:40 PM84 °FScattered clouds.8 mph79%29.65 "Hg4 mi
6:10 PM86 °FScattered clouds.8 mph75%29.65 "Hg4 mi
5:10 PM88 °FScattered clouds.12 mph66%29.62 "Hg5 mi
4:40 PM90 °FScattered clouds.14 mph59%29.62 "Hg5 mi
4:10 PM90 °FScattered clouds.14 mph59%29.62 "Hg5 mi
3:40 PM91 °FScattered clouds.12 mph56%29.62 "Hg5 mi
2:40 PM91 °FScattered clouds.9 mph56%29.62 "Hg5 mi
2:10 PM93 °FScattered clouds.5 mph53%29.62 "Hg5 mi
1:40 PM93 °FScattered clouds.5 mph53%29.65 "Hg5 mi
1:10 PM95 °FScattered clouds.14 mph47%29.65 "Hg5 mi
12:40 PM93 °FScattered clouds.9 mph49%29.65 "Hg5 mi
12:10 PM93 °FScattered clouds.12 mph49%29.68 "Hg5 mi
11:40 AM93 °FScattered clouds.12 mph53%29.68 "Hg5 mi
10:40 AM91 °FScattered clouds.12 mph59%29.71 "Hg5 mi
10:10 AM90 °FPassing clouds.12 mph63%29.71 "Hg5 mi
9:40 AM90 °FPassing clouds.12 mph63%29.71 "Hg5 mi
9:10 AM88 °FPassing clouds.12 mph66%29.71 "Hg5 mi
8:10 AM84 °FPassing clouds.9 mph74%29.71 "Hg4 mi
7:40 AM84 °FPassing clouds.9 mph74%29.68 "Hg4 mi
7:10 AM82 °FPassing clouds.8 mph79%29.68 "Hg4 mi
6:40 AM81 °FPassing clouds.7 mph79%29.68 "Hg4 mi
6:10 AM79 °FPassing clouds.7 mph84%29.68 "Hg4 mi
Weather by CustomWeather, © 2014

See weather overviewHow to use our weather pages